Dewpoint
57 56 56 56 56 55 56 55 55 54 54 55 55 55 54 54 55 55 55 55 55 55 55 56 56 57 57 57 57 58 57 55 54 52 50 46 53 53 66 64 67 76 76 73 73 72 70 70 69 69 68 67 67 65 66 67 67 65 60 58 55 56 55 57 56 56 58 58 60 63 63 62 61 65 66 67 66 66 66 66 67 68 69 70 71 72 71 70
56 56 56 55 56 55 55 55 54 54 55 55 55 54 54 54 55 55 55 55 55 55 55 56 56 56 57 57 57 57 56 55 51 51 48 54 59 65 66 68 72 77 76 72 71 69 68 68 69 69 67 65 68 65 67 64 68 62 60 58 55 56 57 60 60 59 59 58 60 62 64 63 61 65 66 64 63 65 64 64 66 66 68 70 71 71 71 69
56 56 55 55 56 55 55 54 53 54 54 54 54 54 53 54 54 55 54 54 54 54 55 55 56 56 57 57 57 58 55 52 51 49 47 63 61 67 68 68 74 77 73 71 71 69 68 68 69 68 67 66 66 64 65 63 65 64 60 57 57 57 57 61 62 60 61 61 60 61 63 63 63 64 67 64 63 64 62 62 64 65 66 68 70 71 71 68
56 56 56 56 56 55 55 53 53 54 54 55 55 54 53 54 54 54 54 54 54 55 55 56 56 56 56 57 57 56 53 50 42 37 44 66 64 69 67 70 76 76 72 71 70 69 69 70 69 68 66 65 65 66 63 65 63 63 60 58 58 59 58 59 61 62 62 63 62 62 64 63 64 64 66 64 63 63 63 63 64 64 66 68 70 70 69 68
56 56 56 56 56 55 54 54 54 55 54 54 54 55 53 54 54 54 54 54 54 55 56 56 56 56 56 57 58 56 51 23 25 39 63 68 66 69 68 73 77 74 71 70 69 68 69 68 67 66 66 63 64 65 63 64 64 62 60 61 60 60 59 60 62 63 63 65 63 63 62 62 66 66 65 64 61 62 64 64 65 65 67 68 69 69 68 68
56 56 56 56 56 55 55 55 55 54 54 55 55 54 54 54 54 54 54 54 54 55 56 56 56 56 57 58 56 54 37 25 34 34 70 67 68 71 72 76 76 71 70 70 68 66 68 68 67 65 64 63 62 61 62 64 65 59 61 61 61 61 59 61 63 64 64 64 63 63 64 65 64 63 65 65 63 64 67 66 66 66 68 69 69 68 67 67
56 57 56 56 56 56 55 54 54 54 54 54 55 55 54 54 54 54 54 54 54 55 55 56 56 56 58 57 54 52 34 28 42 42 69 68 70 74 74 77 75 65 69 68 66 64 66 67 66 64 64 63 63 62 63 64 65 61 59 61 61 62 61 62 62 63 64 63 63 64 65 63 63 61 64 64 65 66 67 69 69 67 69 69 68 68 67 67
56 56 56 55 55 56 55 55 54 55 55 54 54 54 54 54 54 54 54 54 54 55 55 55 56 56 58 54 50 41 34 29 33 51 71 68 73 76 76 73 64 62 67 65 64 62 66 66 65 65 63 61 62 62 64 64 64 61 60 62 62 62 62 63 62 63 64 64 64 64 62 62 64 63 64 64 65 66 67 68 68 68 69 69 67 67 67 67
55 55 55 56 55 55 55 55 55 55 56 55 55 55 54 54 54 54 54 54 55 55 55 55 56 57 58 54 43 18 12 25 44 68 68 68 74 75 75 70 63 61 64 64 62 60 64 65 65 65 62 62 64 62 64 61 58 63 62 62 62 61 62 63 63 63 63 64 64 63 62 63 64 66 63 64 65 67 68 68 68 68 68 68 67 67 67 67
56 56 55 55 56 55 56 56 56 56 56 56 56 56 55 54 54 54 54 55 55 55 55 56 56 58 56 53 37 9 13 68 69 69 63 67 74 74 72 70 64 59 58 60 59 57 61 63 64 65 62 63 64 62 64 60 57 63 63 63 62 62 62 63 62 62 63 64 64 62 61 62 64 63 60 66 67 67 67 66 67 67 68 67 67 67 67 67
56 56 56 56 56 56 56 56 56 56 56 56 56 56 55 54 54 54 54 55 55 55 56 56 57 58 53 52 12 7 20 64 65 58 62 70 72 71 67 68 64 59 56 57 57 56 59 60 63 63 63 61 63 62 61 62 63 62 63 62 62 62 62 63 63 63 62 61 63 63 62 64 64 63 62 65 67 67 66 65 66 66 67 66 67 67 67 67
57 57 57 57 57 57 56 56 56 56 56 56 55 55 54 54 54 54 54 55 55 56 56 57 57 56 55 50 32 14 33 62 62 57 63 70 68 68 63 67 64 59 56 55 56 55 56 56 60 58 59 63 60 64 63 64 63 63 63 58 57 59 56 63 61 63 62 61 64 63 62 61 62 61 64 66 67 67 66 65 65 66 67 66 66 67 66 66
57 57 57 57 57 56 56 56 56 56 55 55 55 54 54 54 54 54 54 55 55 56 56 57 57 56 54 32 35 40 42 44 57 60 61 55 54 54 57 64 63 59 57 56 55 56 57 56 54 51 52 55 61 56 59 63 63 63 63 58 57 56 52 58 63 63 61 62 64 61 50 52 60 63 64 66 66 66 66 65 65 65 66 66 65 65 66 65
57 57 57 57 57 56 56 56 56 55 54 55 55 55 54 54 54 54 55 55 57 56 58 58 57 55 44 27 28 39 42 39 54 59 58 55 53 50 56 57 58 52 49 46 47 49 53 51 51 49 50 49 52 62 58 60 63 56 57 59 54 51 49 57 62 61 60 63 63 61 52 53 59 62 65 66 66 65 64 65 64 65 65 66 66 65 64 64
57 57 57 57 57 56 56 56 56 56 55 55 55 54 53 54 54 55 56 56 57 58 58 58 57 51 39 34 39 48 56 37 45 56 58 49 49 47 50 55 54 52 49 47 46 48 46 48 48 47 48 55 57 59 57 56 56 58 52 49 51 49 50 55 61 61 57 62 63 59 53 54 58 62 65 66 66 65 64 65 64 65 64 65 65 65 64 63
57 57 57 57 57 57 56 56 56 56 55 54 53 53 53 54 55 55 56 56 57 57 57 56 55 53 42 29 30 53 50 39 37 45 57 50 47 45 47 53 53 53 50 46 45 43 44 48 45 47 49 51 53 54 54 53 52 53 50 49 50 50 51 52 59 62 61 62 63 59 54 57 59 63 64 66 65 65 65 64 64 65 64 65 65 64 65 64
57 57 57 57 57 57 56 56 56 55 54 53 53 53 53 54 55 56 57 57 57 57 56 52 53 55 33 36 36 33 38 46 46 45 56 54 46 45 46 47 48 48 48 45 44 41 43 47 49 50 50 49 52 56 52 49 49 49 51 50 51 50 51 48 53 61 62 60 58 59 58 58 58 62 63 65 65 64 65 64 65 65 65 65 65 65 65 65
57 56 56 56 56 56 55 56 55 54 53 53 53 53 52 55 56 57 57 58 57 56 56 56 53 43 30 29 29 33 40 40 43 43 53 54 47 44 44 44 45 44 43 39 38 36 43 44 47 48 50 52 54 53 49 47 48 45 48 48 47 50 53 50 51 55 58 58 56 56 56 57 59 61 63 64 65 64 64 64 64 64 64 65 65 65 65 64
56 56 56 56 56 56 56 55 55 53 52 53 53 54 54 56 56 55 53 55 44 33 28 38 41 29 14 21 24 35 38 39 47 46 49 50 49 44 46 46 43 38 35 27 29 31 40 45 46 46 47 49 50 53 51 51 49 48 49 48 49 47 47 48 52 57 57 55 54 55 54 57 57 60 63 64 64 64 64 65 65 65 64 65 65 64 64 64
57 56 56 55 56 56 56 55 54 52 52 52 50 51 51 48 47 48 52 52 49 32 34 34 42 40 35 32 29 36 38 44 44 46 50 54 45 43 43 44 41 37 25 18 34 27 45 43 45 46 48 50 51 52 52 52 52 51 50 49 47 47 48 54 55 57 57 55 55 55 56 57 57 58 62 64 64 64 64 64 64 64 64 64 64 64 64 64
56 56 55 55 56 56 56 55 54 52 52 51 50 47 39 44 40 41 48 48 47 45 44 43 39 37 33 35 37 39 37 37 42 45 49 52 45 43 41 43 37 35 26 32 36 44 44 43 45 47 49 50 51 50 51 50 49 50 49 48 47 47 47 50 55 56 56 50 53 56 56 57 58 59 61 63 63 62 63 63 64 64 63 64 64 64 64 64
56 56 55 55 55 56 55 54 53 52 52 50 49 46 46 45 43 41 41 35 38 45 45 43 42 40 41 40 41 42 40 37 36 46 50 46 43 40 40 43 35 30 39 43 46 42 41 40 44 47 48 49 49 49 48 47 48 49 48 47 47 46 49 53 55 56 59 52 51 55 53 54 58 59 61 62 62 64 65 64 64 64 63 63 64 64 64 63
56 56 55 55 55 55 55 54 52 51 50 49 46 44 43 43 46 45 41 38 37 40 43 43 42 41 41 43 42 41 39 36 33 43 48 47 42 46 43 45 32 41 41 43 45 45 44 44 45 47 49 48 48 50 48 47 46 46 46 46 44 46 46 45 52 59 59 54 52 55 53 54 58 60 61 63 63 63 63 64 65 66 63 63 63 63 63 62
56 55 55 55 55 55 54 53 51 50 48 48 47 46 45 46 45 44 39 36 36 38 41 43 42 42 41 40 41 40 38 38 34 42 49 45 41 46 46 48 38 44 40 44 44 45 46 47 47 48 48 48 47 47 48 47 46 47 45 45 44 44 46 46 48 57 58 58 57 53 50 51 57 57 59 61 62 62 63 63 64 66 65 65 63 63 63 62
55 55 55 55 55 55 54 52 49 50 50 48 48 48 48 47 47 45 38 35 33 35 42 44 43 42 41 45 41 39 39 39 35 40 48 46 46 48 48 49 49 46 44 46 45 45 46 47 48 48 47 46 46 45 45 46 44 44 45 45 44 44 45 55 55 53 50 49 54 49 42 44 51 57 58 60 61 60 63 62 62 64 64 64 62 62 62 62
55 55 55 54 54 54 53 49 49 50 49 47 48 49 49 49 47 46 38 31 24 27 37 32 43 34 42 40 41 40 38 36 37 45 48 48 52 48 50 48 49 47 49 48 47 47 47 48 47 46 45 45 44 44 44 45 43 43 42 44 45 45 45 53 53 49 45 44 50 52 43 42 52 54 57 59 58 58 62 61 62 63 62 62 61 61 61 61
55 55 55 54 54 53 48 47 49 48 46 43 48 48 48 46 48 43 38 27 27 31 32 32 35 31 40 39 39 39 28 30 45 48 48 52 48 52 48 47 46 47 49 46 45 44 45 46 45 45 45 44 44 43 45 44 42 41 43 46 46 45 48 53 51 49 47 54 54 54 49 45 45 50 58 59 56 57 58 59 60 62 60 60 60 60 60 61
55 55 55 54 53 53 48 47 48 47 46 45 48 48 49 48 46 43 34 25 26 32 25 28 31 30 35 31 38 35 34 38 34 44 47 49 50 50 48 47 45 46 44 45 44 46 43 39 44 43 43 41 40 41 46 43 41 40 46 47 46 46 49 52 50 51 51 48 45 50 53 45 45 49 59 56 55 56 57 58 59 60 59 59 59 59 60 60
55 54 54 53 53 51 51 49 48 44 46 48 48 48 49 47 44 39 33 24 27 30 28 28 27 25 24 32 36 37 21 34 33 40 48 49 49 49 46 47 45 45 44 45 44 44 42 39 38 39 36 35 36 36 36 42 39 40 52 52 52 52 52 51 51 51 49 44 43 47 51 43 44 51 56 56 52 55 56 58 59 57 57 58 59 59 59 60
54 54 53 53 52 49 49 49 48 48 49 48 48 49 49 44 38 34 28 23 27 21 21 25 22 19 24 26 27 26 28 22 27 45 47 46 46 47 45 50 46 43 43 43 42 43 44 48 48 39 36 36 36 36 35 37 38 48 50 49 49 49 50 53 49 47 44 40 44 46 51 45 41 50 55 53 51 51 56 58 59 58 58 57 58 59 59 59
53 53 53 52 49 49 49 47 48 49 49 48 49 48 43 42 38 29 22 22 26 24 22 23 21 13 19 24 26 26 22 18 31 45 44 45 45 45 42 41 41 40 38 37 38 38 37 38 38 41 43 38 36 35 35 40 44 48 47 46 44 44 46 45 45 46 41 39 43 46 51 47 40 43 54 54 51 50 53 56 57 59 57 57 57 58 58 59
53 52 52 52 52 50 45 44 49 49 48 49 50 42 39 33 30 26 23 33 23 23 17 20 22 10 15 20 19 19 24 18 25 44 43 43 42 43 42 39 41 41 39 38 39 37 37 37 37 37 53 38 36 33 32 37 43 47 45 44 39 37 39 37 39 37 39 39 43 50 50 46 46 45 50 54 53 50 51 54 56 58 57 56 56 57 58 58
52 51 51 51 52 49 49 49 50 49 50 51 46 42 38 31 26 29 33 30 24 19 15 23 22 8 14 18 18 18 19 22 17 44 44 43 42 42 43 41 39 41 37 40 37 36 36 36 36 35 33 41 33 32 32 31 35 45 44 41 37 35 34 31 34 38 38 39 43 50 50 44 45 44 48 51 54 52 50 52 58 57 55 55 56 56 57 58
51 50 48 51 51 50 51 53 50 49 49 56 41 39 38 29 29 51 38 34 28 25 21 14 12 15 14 12 15 16 17 17 21 32 43 42 41 40 41 41 38 37 38 36 32 33 32 29 29 32 30 34 33 33 33 34 40 44 44 38 36 38 34 27 33 28 30 36 40 50 44 42 38 40 45 49 52 53 50 52 57 57 55 55 55 56 56 57
50 49 49 51 51 51 51 51 50 50 49 44 41 38 33 31 36 32 34 33 32 24 20 16 10 12 14 15 13 16 16 16 20 42 42 40 40 40 39 40 39 37 36 35 37 36 32 31 32 33 32 32 30 33 34 33 35 38 32 33 33 32 38 28 34 37 38 40 40 45 44 46 41 45 49 53 50 52 51 51 54 56 54 54 54 55 55 57
50 49 50 49 50 51 51 51 50 48 44 41 39 36 31 34 27 34 32 35 32 29 28 11 9 8 10 12 14 14 14 16 16 41 41 40 41 39 40 39 39 37 35 34 34 31 33 29 31 29 31 27 27 35 32 30 28 31 32 34 33 35 40 41 46 45 40 35 35 44 40 37 39 43 46 53 51 51 50 50 51 52 53 53 53 54 55 56
50 51 49 52 51 51 50 50 49 48 42 38 33 28 36 38 36 36 55 32 31 30 19 9 10 8 9 9 12 13 12 16 14 38 37 37 39 39 38 38 39 37 36 36 34 31 29 29 30 30 28 29 28 30 29 31 30 28 29 31 37 41 39 35 30 36 36 32 36 40 37 36 36 38 46 52 52 51 50 49 50 52 52 53 53 53 54 56
50 50 56 53 50 49 50 49 48 44 37 31 29 40 44 35 39 37 39 34 27 23 18 16 17 10 11 9 7 13 14 12 14 28 26 36 37 39 38 35 37 38 37 37 35 35 30 28 29 30 29 29 24 27 23 25 31 27 32 33 31 32 30 37 34 31 31 31 35 36 40 41 37 40 41 50 51 51 50 50 50 52 52 52 52 53 54 56
49 49 43 46 50 49 49 49 48 43 30 22 29 25 43 41 40 39 37 34 30 27 16 16 15 17 13 9 10 14 13 10 13 13 12 18 34 35 38 36 33 37 38 36 35 34 32 29 29 29 26 24 21 22 20 24 28 28 36 34 42 38 39 36 34 36 35 34 31 33 35 33 40 40 39 44 52 52 52 51 50 52 52 52 52 53 54 55
47 42 41 48 49 50 51 50 42 36 24 19 22 35 35 32 31 32 32 31 30 22 20 19 22 20 15 11 13 10 13 12 10 10 13 18 31 30 34 37 33 32 37 36 35 32 29 31 27 28 27 23 22 26 19 25 26 26 28 30 34 41 43 38 41 39 34 35 34 32 32 37 39 42 42 42 51 53 53 52 52 52 53 53 53 53 54 55
49 44 43 49 50 50 47 40 36 34 30 32 35 30 33 33 34 36 37 36 32 29 24 20 21 19 21 21 18 17 14 12 12 8 10 11 28 23 23 32 33 30 35 35 35 29 30 26 27 27 23 22 22 23 21 25 27 25 25 26 31 37 36 34 34 39 39 34 32 32 31 37 39 44 45 44 49 53 54 53 53 53 53 54 54 54 55 56
42 38 40 47 49 47 42 36 35 40 34 34 35 36 37 45 40 37 34 36 31 33 27 21 23 20 24 20 23 23 16 14 13 13 11 7 14 19 15 25 32 32 32 32 33 30 31 27 26 23 23 23 23 24 23 22 28 27 25 28 36 39 37 34 27 31 38 40 43 37 35 37 42 47 48 47 50 53 54 54 54 54 54 54 54 55 56 56
45 42 46 47 48 45 41 39 47 45 37 35 37 37 36 36 36 33 35 37 34 32 28 28 23 26 27 26 27 26 15 15 12 11 10 10 8 14 16 25 27 32 32 34 30 31 48 29 26 26 27 26 23 21 26 26 21 21 20 37 35 34 34 31 30 36 38 39 36 35 36 38 45 54 51 49 50 51 53 53 54 54 54 55 55 55 56 56
46 45 46 50 48 45 39 36 37 37 40 41 40 38 38 37 35 34 36 35 37 35 32 27 25 25 25 29 27 32 33 20 20 21 25 20 22 18 14 17 27 29 29 29 30 35 30 32 27 23 26 25 26 26 21 24 21 22 16 23 37 40 38 37 39 41 37 39 39 34 31 36 41 51 52 51 51 51 52 53 53 53 54 54 54 56 56 57
47 47 48 50 53 44 40 39 39 39 42 39 39 37 36 37 38 36 35 35 34 33 28 27 27 27 24 28 33 33 35 24 28 35 31 30 30 35 36 25 25 23 29 42 48 32 30 31 28 24 22 17 14 14 15 17 17 18 21 20 37 37 39 37 34 37 31 39 38 35 35 39 41 45 47 48 50 53 52 52 53 53 54 54 55 55 56 57
44 39 41 43 43 43 44 45 40 40 40 41 40 38 37 37 37 37 35 33 33 33 24 30 33 32 32 31 33 34 34 35 33 35 35 33 34 35 36 35 23 19 43 58 47 33 31 33 29 29 25 22 27 28 28 39 19 15 15 18 29 38 39 39 38 36 33 38 38 39 39 40 39 38 43 45 50 50 50 52 53 53 54 55 56 56 56 57
46 40 41 40 42 40 41 41 41 42 41 43 38 39 38 37 37 36 38 33 34 32 31 33 35 35 35 33 32 34 36 36 35 36 33 34 34 35 36 37 35 49 57 54 43 28 29 24 24 30 26 23 24 27 21 32 19 18 17 14 28 38 38 38 36 35 40 36 34 43 45 40 38 40 41 43 46 48 49 52 53 53 54 55 56 57 60 58
40 43 43 44 38 36 37 37 40 43 44 43 40 43 39 37 36 36 37 37 35 32 33 33 33 35 35 35 36 33 34 38 35 32 35 36 34 34 33 35 34 48 49 42 38 25 24 21 21 26 24 24 21 19 21 20 20 21 17 17 20 36 40 36 37 38 38 35 31 39 44 41 39 39 39 42 45 45 46 49 53 53 55 57 57 57 57 57
45 46 44 47 41 42 38 40 45 46 44 44 45 43 40 38 37 37 37 36 33 31 31 33 32 34 34 35 37 35 37 33 32 38 36 33 34 36 32 35 35 33 33 30 25 36 17 18 22 22 22 20 19 19 22 19 20 29 32 31 27 28 32 36 37 41 39 39 40 39 44 40 39 38 39 41 45 47 49 54 57 55 53 56 56 56 56 57
44 44 43 48 46 45 45 45 45 44 41 45 43 41 41 39 38 38 38 36 32 33 33 30 29 33 34 34 38 34 36 37 36 35 37 36 32 38 35 35 34 34 33 33 34 31 16 24 41 22 19 18 17 27 17 17 30 35 35 36 35 33 18 25 28 41 45 38 37 38 42 40 42 45 43 46 47 52 54 53 53 55 55 55 56 56 56 57
49 49 48 44 41 44 49 45 45 44 41 42 42 43 43 40 40 40 38 37 34 35 35 35 34 33 37 36 35 36 37 38 38 36 36 36 32 39 34 35 34 32 34 33 36 36 23 17 27 23 14 15 16 19 22 21 33 34 35 36 36 34 33 32 43 42 41 38 39 39 38 37 41 44 48 48 49 48 47 50 54 58 57 56 56 56 56 56
50 50 50 45 40 48 42 44 43 42 41 42 45 43 43 42 41 40 38 39 38 36 37 37 37 36 37 36 35 36 36 37 37 37 36 35 34 34 35 34 34 38 35 34 39 31 28 25 18 21 13 17 13 25 25 24 23 30 34 35 38 40 36 33 44 50 50 47 41 36 36 41 43 48 45 44 45 49 52 52 53 57 58 56 55 55 56 56